Flag Weather past 2 weeks in Oranienburg, Brandenburg, Germany

Now
43 °F

Overcast.


Feels Like: 39 °F
Forecast: 37 / 46 °F
Wind: 6 mph from Southeast

Location: Berlin-Tegel

Current Time: Nov 22, 2014 at 5:49:10 PM

Latest Report: Nov 22, 2014 at 5:00 PM


Visibility: 19 mi

Pressure: 30.27 "Hg

Humidity: 77%

Dew point: 36 °F

Location of OranienburgLocation

Historic Weather in Oranienburg — Graph

°F

Oranienburg temperature yesterday

Maximum temperature yesterday: 44 °F (at 3:00 PM)
Minimum temperature yesterday: 39 °F (at 7:00 AM)
Average temperature yesterday: 42 °F

Past Weeks' High & Low Weather Summary

 TemperatureHumidityPressure
High56 °F (Nov 8, 1:00 PM)100% (Nov 11, 7:00 AM)30.37 "Hg (Nov 11, 7:00 AM)
Low39 °F (Nov 19, 8:00 AM)64% (Nov 8, 3:00 PM)29.59 "Hg (Nov 16, 2:00 PM)
Average46 °F90%29.96 "Hg
* Reported Nov 7 4:00 PM — Nov 22 4:00 PM, Oranienburg, Weather by CustomWeather, © 2014

Note: Actual official high and low records may vary slightly from our data, if they occured in-between our weather recording intervals... More about our weather records

Advertising

Oranienburg weather history for previous 24 hours

 ConditionsComfort  
Time TempWeatherWind HumidityBarometerVisibility
4:00 PM
Nov 22
43 °FOvercast.7 mph75%30.26 "Hg19 mi
3:00 PM44 °FPartly sunny.6 mph75%30.26 "Hg19 mi
2:00 PM44 °FOvercast.6 mph73%30.27 "Hg19 mi
1:00 PM43 °FOvercast.6 mph76%30.27 "Hg19 mi
12:00 PM43 °FOvercast.6 mph74%30.28 "Hg19 mi
11:00 AM43 °FOvercast.6 mph71%30.31 "Hg19 mi
10:00 AM43 °FOvercast.6 mph73%30.30 "Hg19 mi
9:00 AM42 °FOvercast.5 mph73%30.29 "Hg19 mi
8:00 AM42 °FOvercast.3 mph75%30.29 "Hg19 mi
7:00 AM42 °FOvercast.3 mph75%30.27 "Hg19 mi
6:00 AM42 °FOvercast.5 mph75%30.28 "Hg19 mi
5:00 AM42 °FOvercast.5 mph78%30.28 "Hg19 mi
4:00 AM43 °FOvercast.5 mph78%30.28 "Hg19 mi
3:00 AM43 °FOvercast.2 mph75%30.29 "Hg19 mi
2:00 AM43 °FOvercast.2 mph74%30.29 "Hg19 mi
1:00 AM43 °FOvercast.3 mph73%30.30 "Hg19 mi
12:00 AM43 °FOvercast.2 mph73%30.31 "Hg17 mi
11:00 PM
Nov 21
43 °FOvercast.3 mph75%30.31 "Hg14 mi
10:00 PM43 °FOvercast.2 mph81%30.32 "Hg9 mi
9:00 PM43 °FOvercast.2 mph89%30.31 "Hg9 mi
8:00 PM43 °FOvercast.2 mph91%30.31 "Hg8 mi
7:00 PM43 °FOvercast.1 mph91%30.31 "Hg7 mi
6:00 PM43 °FOvercast.2 mph91%30.30 "Hg5 mi
5:00 PM43 °FOvercast.2 mph91%30.30 "Hg5 mi
Weather by CustomWeather, © 2014

See weather overviewHow to use our weather pages